Simultaneous Nadir Overpasses (SNOs) Predictions

Prediction of SNOs between LANDSAT-8 and NOAA-19 Satellite Orbit:

Table of predicted SNOs for the next 14.0 days since TLE Epoch: 12/6/2013
Index Date (LANDSAT-8) Time (LANDSAT-8) Lat,Lon (LANDSAT-8) SZA (LANDSAT-8 ) Date (NOAA-19) Time (NOAA-19) Lat,Lon (NOAA-19) SZA (NOAA-19 ) Distance(km) Time Diff (sec)
1 12/07/2013 18:19:27 71.37, -96.25 93.95 12/07/2013 18:18:15 71.36, -96.21 93.94 2.14 72
2 12/07/2013 19:08:57 -71.27, 71.21 86.16 12/07/2013 19:09:18 -71.26, 71.19 86.16 0.93 21
3 12/09/2013 23:03:41 71.52,-167.08 94.32 12/09/2013 23:02:28 71.60,-167.68 94.40 22.94 73
4 12/09/2013 23:53:14 -71.25, 0.12 85.95 12/09/2013 23:53:26 -71.27, 0.15 85.93 2.58 12
5 12/12/2013 03:47:51 71.81, 122.34 94.79 12/12/2013 03:46:41 71.91, 120.74 94.89 56.39 70
6 12/12/2013 04:37:29 -71.28, -70.92 85.75 12/12/2013 04:37:33 -71.29, -70.89 85.73 1.77 4
7 12/12/2013 05:27:10 70.40, 95.38 93.38 12/12/2013 05:28:16 70.41, 97.87 93.39 92.84 66
8 12/14/2013 08:32:01 72.14, 51.84 95.27 12/14/2013 08:30:55 72.21, 49.12 95.35 92.83 66
9 12/14/2013 09:21:44 -71.34,-141.89 85.54 12/14/2013 09:21:41 -71.32,-141.95 85.56 3.31 3
10 12/14/2013 10:11:21 70.68, 24.72 93.80 12/14/2013 10:12:29 70.67, 26.42 93.80 62.49 68
11 12/16/2013 14:06:00 -71.33, 147.03 85.44 12/16/2013 14:05:49 -71.35, 146.97 85.42 3.25 11
12 12/16/2013 14:55:31 70.99, -45.86 94.23 12/16/2013 14:56:42 70.94, -45.05 94.17 30.17 71
13 12/18/2013 18:50:15 -71.36, 76.01 85.34 12/18/2013 18:49:56 -71.35, 75.98 85.36 1.84 19




NCC Satellite Simultaneous Nadir Overpasses (SNOs) Prediction Service
